COSMOS 1830

Satellite information

Favourite Embed

Satellite Type and Status

PAYLOADIN ORBIT

Key statistics

Satellite COSMOS 1830 at a glance.

Uptime

13998

Days in orbit

Revolutions

≈ 12.6

Per day

Orbit

LEO

Low Earth Orbit

Inclination

82.6

Latest

Satellite identification and parameters

Extended collection of information and parameters for COSMOS 1830.

Object identification

Identified? True

Debris? False

Object name: COSMOS 1830

International designator: 1987-026D

Object number (NORAD): 17585

Object ID (CCSDS): 17585

Country: COMMONWEALTH OF INDEPENDENT STATES (CIS)

Current information (Y/N): Y

RCS size: LARGE

Orbital parameters

Period: 113.96 minutes

Inclination: 82.5603 deg

SMA: 7786.232 km

Apoapsis: 1411.383 km

Periapsis: 1404.81 km

RAAN: 66.7492 deg

Eccentricy: 0.0004221

Argument of periapsis: 300.75 deg

Mean anomaly: 70.0084 deg

Mean motion: 12.63606286 rev/day

Mean motion (dot): 0.00000032 rev/day2

B* drag term: 0.00011789 1/REarth

Two-line elements (TLE)

Creation date: July 7, 2025, 10:26 p.m.

Reference frame: TEME

Reference center: EARTH

Epoch: July 7, 2025, 9:39 p.m. UTC

TLE line 0: 0 COSMOS 1830

TLE line 1: 1 17585U 87026D 25188.90236716 .00000032 00000-0 11789-3 0 9991

TLE line 2: 2 17585 82.5603 66.7492 0004221 300.7500 70.0084 12.63606286767414

Live tracking on map

Real-time ground track for satellite COSMOS 1830.

In-orbit conjunctions

A list of the most updated potential collisions computed for object COSMOS 1830.

Target Orbit TCA Probability of collision Miss distance Type
COSMOS 2116 LEO 2025-07-01 03:35:49 0.0002608686 239.0 (m) PAYLOAD

Associated space launch

Second generation store-dump military communications satellite

COSMOS 1830 was lifted into orbit during the mission ‘Tsiklon-3 | Strela-3 19 to 24’, on board a Tsiklon-3 space rocket.

The launch took place on March 13, 1987, 1:11 p.m. from 32/2.

For more information about the launch, click the button.

Launch to space Tsiklon-3 | Strela-3 19 to 24
Tsiklon-3 | Strela-3 19 to 24

Agency: N/A

Status: Launch Successful

Launch date: March 13, 1987, 1:11 p.m. UTC

Rocket: Tsiklon-3

Launch pad: 32/2

Location: Plesetsk Cosmodrome, Russian Federation

...

Latest news about this satellite

There are no fresh news available about this satellite. Check back as we update our databases every day.


Newsletter sign-up

Weekly statistics, charts and insights to help you stay on top of the space industry.